Siloam Springs, AR

4:52 AM CDT on May 24, 2017 (GMT -0500)
Smith

Weather History for KSLG - January, 2013

Change the Weather History Date:

Friday, January 11, 2013

  Actual Average Record
Temperature  
Mean Temperature 55 °F -  
Max Temperature 66 °F 43 °F 73 °F (2017)
Min Temperature 44 °F 27 °F 0 °F (1997)
Degree Days  
Heating Degree Days 10    
Growing Degree Days 5 (Base 50)    
Moisture  
Dew Point 42 °F    
Average Humidity 64    
Maximum Humidity 87    
Minimum Humidity 45    
Precipitation  
Precipitation 0.00 in - - ()
Sea Level Pressure  
Sea Level Pressure 29.83 in    
Wind  
Wind Speed 14 mph (South)    
Max Wind Speed 28 mph    
Max Gust Speed 37 mph    
Visibility 10 miles    
Events      
Averages and records for this station are not official NWS values.
T = Trace of Precipitation, MM = Missing Value Source: NWS Daily Summary

Daily Weather History Graph

Daily Weather History Graph

Search for Another Location

Airport or City:

Trip Planner

Search our weather history database for the weather conditions in past years. The results will help you decide how hot, cold, wet, or windy it might be!

Date:

Astronomy

Jan. 11, 2013 Rise Set
Actual Time 7:29 AM CST 5:23 PM CST
Civil Twilight 7:00 AM CST 5:51 PM CST
Nautical Twilight 6:29 AM CST 6:23 PM CST
Astronomical Twilight 5:58 AM CST 6:54 PM CST
Moon 7:04 AM CST (1/11) 5:40 PM CST (1/11)
Length of Visible Light 10h 50m
Length of Day
9h 54m
Waning Crescent, 0% of the Moon is Illuminated
Jan 11
Waning Crescent
Jan 11
New
Jan 18
First Quarter
Jan 26
Full
Feb 3
Last Quarter

Hourly Weather History & Observations

Time (CST) Temp. Windchill Dew Point Humidity Pressure Visibility Wind Dir Wind Speed Gust Speed Precip Events Conditions
12:15 AM 48.2 °F - 42.8 °F 82% 29.89 in 10.0 mi South 10.4 mph - N/A   Overcast
12:35 AM 48.2 °F - 42.8 °F 82% 29.89 in 10.0 mi SSW 15.0 mph - N/A   Overcast
1:35 AM 48.2 °F - 42.8 °F 82% 29.90 in 10.0 mi South 11.5 mph - N/A   Overcast
1:55 AM 48.2 °F - 42.8 °F 82% 29.91 in 10.0 mi South 13.8 mph - N/A   Overcast
2:15 AM 46.4 °F 40.7 °F 42.8 °F 87% 29.91 in 10.0 mi SSW 12.7 mph - N/A   Overcast
2:55 AM 46.4 °F 41.9 °F 39.2 °F 76% 29.89 in 10.0 mi South 9.2 mph - N/A   Mostly Cloudy
3:15 AM 46.4 °F 41.1 °F 39.2 °F 76% 29.90 in 10.0 mi South 11.5 mph - N/A   Clear
3:35 AM 44.6 °F 39.2 °F 39.2 °F 81% 29.90 in 10.0 mi South 10.4 mph - N/A   Clear
4:15 AM 44.6 °F 39.2 °F 39.2 °F 81% 29.88 in 10.0 mi South 10.4 mph - N/A   Clear
4:35 AM 44.6 °F 39.2 °F 39.2 °F 81% 29.86 in 10.0 mi South 10.4 mph 16.1 mph N/A   Clear
4:55 AM 44.6 °F 40.2 °F 39.2 °F 81% 29.86 in 10.0 mi SSW 8.1 mph - N/A   Clear
5:15 AM 44.6 °F 38.8 °F 39.2 °F 81% 29.86 in 10.0 mi South 11.5 mph - N/A   Clear
5:35 AM 44.6 °F 39.2 °F 39.2 °F 81% 29.86 in 10.0 mi South 10.4 mph - N/A   Clear
5:55 AM 44.6 °F 39.2 °F 39.2 °F 81% 29.85 in 10.0 mi South 10.4 mph - N/A   Clear
6:15 AM 44.6 °F 38.4 °F 39.2 °F 81% 29.86 in 10.0 mi South 12.7 mph - N/A   Clear
6:35 AM 46.4 °F 41.1 °F 39.2 °F 76% 29.87 in 10.0 mi South 11.5 mph - N/A   Clear
6:55 AM 46.4 °F 41.1 °F 39.2 °F 76% 29.86 in 10.0 mi South 11.5 mph - N/A   Clear
7:15 AM 46.4 °F 40.4 °F 39.2 °F 76% 29.86 in 10.0 mi South 13.8 mph - N/A   Clear
7:55 AM 46.4 °F 40.7 °F 39.2 °F 76% 29.87 in 10.0 mi South 12.7 mph 20.7 mph N/A   Clear
8:15 AM 48.2 °F - 39.2 °F 71% 29.87 in 10.0 mi South 13.8 mph - N/A   Clear
8:55 AM 48.2 °F - 41.0 °F 76% 29.88 in 10.0 mi South 16.1 mph - N/A   Clear
9:15 AM 51.8 °F - 42.8 °F 71% 29.88 in 10.0 mi South 16.1 mph 20.7 mph N/A   Clear
9:35 AM 53.6 °F - 42.8 °F 67% 29.87 in 10.0 mi SSW 16.1 mph 19.6 mph N/A   Clear
9:55 AM 53.6 °F - 42.8 °F 67% 29.87 in 10.0 mi SSW 17.3 mph 24.2 mph N/A   Clear
10:15 AM 55.4 °F - 42.8 °F 63% 29.87 in 10.0 mi SSW 23.0 mph 29.9 mph N/A   Clear
10:35 AM 55.4 °F - 44.6 °F 67% 29.87 in 10.0 mi SSW 20.7 mph 29.9 mph N/A   Clear
10:55 AM 57.2 °F - 42.8 °F 59% 29.87 in 10.0 mi SSW 20.7 mph 25.3 mph N/A   Clear
11:15 AM 57.2 °F - 42.8 °F 59% 29.86 in 10.0 mi SSW 24.2 mph 36.8 mph N/A   Clear
11:55 AM 59.0 °F - 44.6 °F 59% 29.83 in 10.0 mi South 20.7 mph 25.3 mph N/A   Clear
1:15 PM 60.8 °F - 44.6 °F 55% 29.79 in 10.0 mi South 21.9 mph 29.9 mph N/A   Clear
1:35 PM 62.6 °F - 44.6 °F 52% 29.78 in 10.0 mi South 18.4 mph - N/A   Clear
2:15 PM 62.6 °F - 44.6 °F 52% 29.77 in 10.0 mi South 21.9 mph 26.5 mph N/A   Clear
2:35 PM 64.4 °F - 44.6 °F 49% 29.76 in 10.0 mi South 18.4 mph 27.6 mph N/A   Clear
2:55 PM 66.2 °F - 44.6 °F 46% 29.76 in 10.0 mi South 27.6 mph 34.5 mph N/A   Clear
3:15 PM 64.4 °F - 44.6 °F 49% 29.75 in 10.0 mi South 23.0 mph 34.5 mph N/A   Clear
3:35 PM 66.2 °F - 44.6 °F 46% 29.76 in 10.0 mi South 23.0 mph 32.2 mph N/A   Clear
3:55 PM 66.2 °F - 44.6 °F 46% 29.77 in 10.0 mi South 19.6 mph 26.5 mph N/A   Clear
4:15 PM 64.4 °F - 42.8 °F 45% 29.76 in 10.0 mi South 18.4 mph 25.3 mph N/A   Clear
4:35 PM 64.4 °F - 42.8 °F 45% 29.76 in 10.0 mi South 16.1 mph 23.0 mph N/A   Clear
4:55 PM 64.4 °F - 42.8 °F 45% 29.77 in 10.0 mi South 17.3 mph 23.0 mph N/A   Clear
5:15 PM 62.6 °F - 42.8 °F 48% 29.77 in 10.0 mi South 17.3 mph 21.9 mph N/A   Clear
5:35 PM 60.8 °F - 42.8 °F 52% 29.78 in 10.0 mi South 12.7 mph - N/A   Clear
5:55 PM 60.8 °F - 42.8 °F 52% 29.78 in 10.0 mi South 16.1 mph 24.2 mph N/A   Clear
6:15 PM 60.8 °F - 42.8 °F 52% 29.78 in 10.0 mi South 16.1 mph - N/A   Clear
6:55 PM 59.0 °F - 42.8 °F 55% 29.79 in 10.0 mi South 12.7 mph - N/A   Clear
7:15 PM 60.8 °F - 42.8 °F 52% 29.80 in 10.0 mi South 13.8 mph - N/A   Clear
7:35 PM 59.0 °F - 42.8 °F 55% 29.80 in 10.0 mi South 10.4 mph - N/A   Clear
7:55 PM 59.0 °F - 42.8 °F 55% 29.81 in 10.0 mi SSE 12.7 mph 18.4 mph N/A   Clear
8:35 PM 57.2 °F - 42.8 °F 59% 29.82 in 10.0 mi South 12.7 mph - N/A   Clear
8:55 PM 57.2 °F - 42.8 °F 59% 29.82 in 10.0 mi South 15.0 mph - N/A   Clear
9:15 PM 57.2 °F - 42.8 °F 59% 29.83 in 10.0 mi South 15.0 mph 23.0 mph N/A   Clear
9:55 PM 57.2 °F - 42.8 °F 59% 29.83 in 10.0 mi South 15.0 mph - N/A   Clear
10:15 PM 57.2 °F - 42.8 °F 59% 29.84 in 10.0 mi South 15.0 mph - N/A   Clear
10:35 PM 57.2 °F - 44.6 °F 63% 29.84 in 10.0 mi South 17.3 mph 21.9 mph N/A   Clear
10:55 PM 57.2 °F - 44.6 °F 63% 29.84 in 10.0 mi South 16.1 mph - N/A   Clear
11:35 PM 57.2 °F - 44.6 °F 63% 29.83 in 10.0 mi South 13.8 mph - N/A   Clear
11:55 PM 57.2 °F - 44.6 °F 63% 29.84 in 10.0 mi South 11.5 mph - N/A   Clear